| time (UTC) | temp C | wind direction | speed KPH | gust KPH | rain 1hr cm | rain 24hr cm | rain mn cm | humidity % | barometer mb |
| 20260903140004 | 25 | 213 | 0.0 | 0.0 | 0.00 | 1.14 | 0.00 | 97 | 1016.2 |
| 20260903135502 | 25 | 213 | 0.0 | 0.0 | 0.00 | 1.14 | 0.00 | 97 | 1016.2 |
| 20260903135004 | 25 | 213 | 0.0 | 0.0 | 0.00 | 1.14 | 0.00 | 97 | 1016.3 |
| 20260903134503 | 24 | 213 | 0.0 | 3.2 | 0.00 | 1.14 | 0.00 | 97 | 1016.4 |
| 20260903134003 | 24 | 213 | 0.0 | 3.2 | 0.00 | 1.14 | 0.00 | 97 | 1016.4 |
| 20260903133502 | 24 | 213 | 0.0 | 1.6 | 0.00 | 1.14 | 0.00 | 97 | 1016.5 |
| 20260903133004 | 24 | 217 | 0.0 | 0.0 | 0.00 | 1.14 | 0.00 | 97 | 1016.5 |
| 20260903132503 | 23 | 217 | 0.0 | 0.0 | 0.00 | 1.14 | 0.00 | 96 | 1016.4 |
| 20260903132004 | 23 | 218 | 0.0 | 0.0 | 0.00 | 1.14 | 0.00 | 96 | 1016.3 |
| 20260903131503 | 23 | 217 | 0.0 | 0.0 | 0.00 | 1.14 | 0.00 | 97 | 1016.4 |
| 20260903131003 | 23 | 218 | 0.0 | 0.0 | 0.00 | 1.14 | 0.00 | 97 | 1016.4 |
| 20260903130003 | 23 | 218 | 0.0 | 0.0 | 0.00 | 1.14 | 0.00 | 96 | 1016.3 |
| 20260903125502 | 23 | 217 | 0.0 | 0.0 | 0.00 | 1.14 | 0.00 | 96 | 1016.2 |
| 20260903125003 | 23 | 286 | 0.0 | 1.6 | 0.00 | 1.14 | 0.00 | 96 | 1016.1 |
| 20260903124003 | 23 | 74 | 0.0 | 0.0 | 0.00 | 1.14 | 0.00 | 96 | 1016.2 |
| 20260903123502 | 23 | 74 | 0.0 | 0.0 | 0.00 | 1.14 | 0.00 | 96 | 1016.1 |
| 20260903123004 | 23 | 74 | 0.0 | 1.6 | 0.00 | 1.14 | 0.00 | 96 | 1016.1 |
| 20260903122502 | 23 | 74 | 0.0 | 3.2 | 0.00 | 1.14 | 0.00 | 96 | 1016.1 |
| 20260903122003 | 23 | 74 | 0.0 | 3.2 | 0.00 | 1.14 | 0.00 | 96 | 1016.0 |
| 20260903121503 | 22 | 79 | 0.0 | 0.0 | 0.00 | 1.14 | 0.00 | 96 | 1016.0 |
| 20260903121004 | 22 | 79 | 0.0 | 0.0 | 0.00 | 1.14 | 0.00 | 96 | 1015.9 |
| 20260903120501 | 22 | 79 | 0.0 | 0.0 | 0.00 | 1.14 | 0.00 | 96 | 1015.9 |
| 20260903120003 | 22 | 79 | 0.0 | 0.0 | 0.00 | 1.14 | 0.00 | 96 | 1015.9 |
| 20260903115502 | 22 | 79 | 0.0 | 0.0 | 0.00 | 1.14 | 0.00 | 96 | 1015.9 |
| 20260903115003 | 22 | 79 | 0.0 | 0.0 | 0.00 | 1.14 | 0.00 | 96 | 1015.9 |
| 20260903114503 | 22 | 79 | 0.0 | 0.0 | 0.00 | 1.14 | 0.00 | 96 | 1015.9 |
| 20260903114003 | 22 | 80 | 0.0 | 0.0 | 0.00 | 1.14 | 0.00 | 96 | 1015.9 |
| 20260903113004 | 22 | 79 | 0.0 | 0.0 | 0.00 | 1.14 | 0.00 | 96 | 1015.9 |
| 20260903112502 | 22 | 79 | 0.0 | 0.0 | 0.00 | 1.14 | 0.00 | 96 | 1015.8 |
| 20260903112003 | 22 | 79 | 0.0 | 0.0 | 0.00 | 1.14 | 0.00 | 95 | 1015.8 |
| 20260903111503 | 22 | 80 | 0.0 | 0.0 | 0.00 | 1.14 | 0.00 | 95 | 1015.6 |
| 20260903111003 | 22 | 79 | 0.0 | 0.0 | 0.00 | 1.14 | 0.00 | 95 | 1015.7 |
| 20260903110500 | 22 | 79 | 0.0 | 0.0 | 0.00 | 1.14 | 0.00 | 95 | 1015.6 |
| 20260903110006 | 22 | 79 | 0.0 | 0.0 | 0.00 | 1.14 | 0.00 | 95 | 1015.7 |
| 20260903105004 | 22 | 79 | 0.0 | 0.0 | 0.00 | 1.14 | 0.00 | 95 | 1015.6 |
| 20260903104005 | 22 | 79 | 0.0 | 0.0 | 0.00 | 1.14 | 0.00 | 95 | 1015.4 |
| 20260903103503 | 22 | 79 | 0.0 | 0.0 | 0.00 | 1.14 | 0.00 | 95 | 1015.4 |
| 20260903102503 | 23 | 79 | 0.0 | 0.0 | 0.00 | 1.14 | 0.00 | 95 | 1015.3 |
| 20260903102004 | 23 | 79 | 0.0 | 0.0 | 0.00 | 1.14 | 0.00 | 95 | 1015.2 |
| 20260903101503 | 23 | 79 | 0.0 | 0.0 | 0.00 | 1.14 | 0.00 | 95 | 1015.3 |
| 20260903101005 | 23 | 79 | 0.0 | 0.0 | 0.00 | 1.14 | 0.00 | 95 | 1015.2 |
| 20260903100503 | 23 | 79 | 0.0 | 0.0 | 0.00 | 1.14 | 0.00 | 95 | 1015.2 |
| 20260903100007 | 23 | 79 | 0.0 | 0.0 | 0.00 | 1.14 | 0.00 | 95 | 1015.1 |
| 20260903095003 | 23 | 79 | 0.0 | 0.0 | 0.00 | 1.14 | 0.00 | 95 | 1015.0 |
| 20260903094503 | 23 | 79 | 0.0 | 0.0 | 0.00 | 1.14 | 0.00 | 95 | 1015.0 |
| 20260903094003 | 23 | 79 | 0.0 | 0.0 | 0.00 | 1.14 | 0.00 | 95 | 1015.0 |
| 20260903093501 | 23 | 79 | 0.0 | 0.0 | 0.00 | 1.14 | 0.00 | 95 | 1015.0 |
| 20260903093003 | 23 | 80 | 0.0 | 0.0 | 0.00 | 1.14 | 0.00 | 95 | 1015.0 |
| 20260903092503 | 23 | 79 | 0.0 | 0.0 | 0.00 | 1.14 | 0.00 | 95 | 1015.0 |
| 20260903092003 | 23 | 79 | 0.0 | 0.0 | 0.00 | 1.14 | 0.00 | 95 | 1015.1 |
| 20260903091502 | 23 | 79 | 0.0 | 0.0 | 0.00 | 1.14 | 0.00 | 95 | 1015.3 |
| 20260903091003 | 23 | 79 | 0.0 | 0.0 | 0.00 | 1.14 | 0.00 | 95 | 1015.3 |
| 20260903090502 | 23 | 79 | 0.0 | 0.0 | 0.00 | 1.14 | 0.00 | 95 | 1015.3 |
| 20260903090005 | 23 | 79 | 0.0 | 0.0 | 0.00 | 1.14 | 0.00 | 95 | 1015.2 |
| 20260903085501 | 23 | 79 | 0.0 | 0.0 | 0.00 | 1.14 | 0.00 | 95 | 1015.2 |
| 20260903085003 | 23 | 79 | 0.0 | 0.0 | 0.00 | 1.14 | 0.00 | 95 | 1015.2 |
| 20260903084503 | 23 | 79 | 0.0 | 0.0 | 0.00 | 1.14 | 0.00 | 95 | 1015.1 |
| 20260903084002 | 23 | 79 | 0.0 | 0.0 | 0.00 | 1.14 | 0.00 | 95 | 1015.0 |
| 20260903083502 | 23 | 79 | 0.0 | 0.0 | 0.00 | 1.14 | 0.00 | 95 | 1015.0 |
| 20260903083005 | 23 | 79 | 0.0 | 0.0 | 0.00 | 1.14 | 0.00 | 95 | 1015.1 |
| 20260903082503 | 23 | 79 | 0.0 | 0.0 | 0.00 | 1.14 | 0.00 | 95 | 1015.1 |
| 20260903082004 | 23 | 79 | 0.0 | 0.0 | 0.00 | 1.14 | 0.00 | 95 | 1015.0 |
| 20260903081503 | 23 | 79 | 0.0 | 0.0 | 0.00 | 1.14 | 0.00 | 95 | 1015.0 |
| 20260903081003 | 23 | 79 | 0.0 | 0.0 | 0.00 | 1.14 | 0.00 | 95 | 1015.0 |
| 20260903080502 | 23 | 79 | 0.0 | 0.0 | 0.00 | 1.14 | 0.00 | 95 | 1014.9 |
| 20260903080004 | 23 | 79 | 0.0 | 0.0 | 0.00 | 1.14 | 0.00 | 95 | 1014.8 |
| 20260903075502 | 23 | 79 | 0.0 | 0.0 | 0.00 | 1.14 | 0.00 | 95 | 1014.9 |
| 20260903074503 | 23 | 79 | 0.0 | 0.0 | 0.00 | 1.14 | 0.00 | 95 | 1014.9 |
| 20260903074002 | 23 | 79 | 0.0 | 0.0 | 0.00 | 1.14 | 0.00 | 95 | 1014.9 |
| 20260903073502 | 23 | 79 | 0.0 | 0.0 | 0.00 | 1.14 | 0.00 | 95 | 1014.9 |
| 20260903073003 | 23 | 79 | 0.0 | 0.0 | 0.00 | 1.14 | 0.00 | 95 | 1014.9 |
| 20260903072503 | 23 | 79 | 0.0 | 0.0 | 0.00 | 1.14 | 0.00 | 95 | 1014.9 |
| 20260903072003 | 23 | 79 | 0.0 | 0.0 | 0.00 | 1.14 | 0.00 | 95 | 1014.9 |
| 20260903071503 | 23 | 79 | 0.0 | 0.0 | 0.00 | 1.14 | 0.00 | 95 | 1015.0 |
| 20260903070502 | 23 | 79 | 0.0 | 0.0 | 0.00 | 1.14 | 0.00 | 95 | 1015.0 |
| 20260903065503 | 23 | 85 | 0.0 | 0.0 | 0.00 | 1.14 | 0.00 | 95 | 1015.0 |
| 20260903065002 | 23 | 86 | 0.0 | 0.0 | 0.00 | 1.14 | 0.00 | 95 | 1015.2 |
| 20260903064503 | 23 | 192 | 0.0 | 0.0 | 0.00 | 1.14 | 0.00 | 95 | 1015.2 |
| 20260903064003 | 23 | 192 | 0.0 | 0.0 | 0.00 | 1.14 | 0.00 | 95 | 1015.1 |
| 20260903063004 | 23 | 192 | 0.0 | 0.0 | 0.00 | 1.14 | 0.00 | 95 | 1015.3 |
| 20260903062003 | 23 | 192 | 0.0 | 0.0 | 0.00 | 1.14 | 0.00 | 95 | 1015.2 |
| 20260903061503 | 23 | 192 | 0.0 | 0.0 | 0.00 | 1.14 | 0.00 | 95 | 1015.3 |
| 20260903061003 | 23 | 192 | 0.0 | 0.0 | 0.00 | 1.14 | 0.00 | 95 | 1015.4 |
| 20260903060502 | 23 | 192 | 0.0 | 0.0 | 0.00 | 1.14 | 0.00 | 95 | 1015.6 |
| 20260903060006 | 23 | 192 | 0.0 | 0.0 | 0.00 | 1.14 | 0.00 | 95 | 1015.6 |
| 20260903055503 | 23 | 188 | 0.0 | 0.0 | 0.00 | 1.14 | 0.00 | 95 | 1015.5 |
| 20260903055004 | 23 | 188 | 0.0 | 0.0 | 0.00 | 1.14 | 0.00 | 95 | 1015.6 |
| 20260903054005 | 23 | 188 | 0.0 | 0.0 | 0.00 | 1.14 | 0.00 | 95 | 1015.5 |
| 20260903053503 | 23 | 188 | 0.0 | 0.0 | 0.00 | 1.14 | 0.00 | 95 | 1015.5 |
| 20260903053004 | 23 | 188 | 0.0 | 0.0 | 0.00 | 1.14 | 0.00 | 95 | 1015.5 |
| 20260903052004 | 23 | 188 | 0.0 | 0.0 | 0.00 | 1.14 | 0.00 | 95 | 1015.5 |
| 20260903051503 | 23 | 188 | 0.0 | 0.0 | 0.00 | 1.14 | 0.00 | 95 | 1015.5 |
| 20260903050503 | 23 | 188 | 0.0 | 0.0 | 0.00 | 1.14 | 0.00 | 95 | 1015.5 |
| 20260903045503 | 23 | 211 | 0.0 | 0.0 | 0.00 | 1.14 | 1.14 | 95 | 1015.5 |
| 20260903045005 | 23 | 211 | 0.0 | 0.0 | 0.00 | 1.14 | 1.14 | 95 | 1015.7 |
| 20260903044504 | 23 | 211 | 0.0 | 0.0 | 0.00 | 1.14 | 1.14 | 95 | 1015.6 |
| 20260903044004 | 23 | 211 | 0.0 | 0.0 | 0.00 | 1.14 | 1.14 | 95 | 1015.8 |
| 20260903043503 | 23 | 211 | 0.0 | 0.0 | 0.00 | 1.14 | 1.14 | 95 | 1015.7 |
| 20260903043005 | 23 | 211 | 0.0 | 0.0 | 0.00 | 1.14 | 1.14 | 95 | 1015.7 |
| 20260903042503 | 23 | 211 | 0.0 | 0.0 | 0.00 | 1.14 | 1.14 | 95 | 1015.8 |
| 20260903042004 | 24 | 212 | 0.0 | 0.0 | 0.00 | 1.14 | 1.14 | 94 | 1015.7 |
| 20260903041505 | 24 | 211 | 0.0 | 0.0 | 0.00 | 1.14 | 1.14 | 94 | 1015.8 |
| 20260903041004 | 24 | 211 | 0.0 | 0.0 | 0.00 | 1.14 | 1.14 | 94 | 1015.8 |
| 20260903040503 | 24 | 211 | 0.0 | 0.0 | 0.00 | 1.14 | 1.14 | 94 | 1015.9 |
| 20260903040008 | 24 | 211 | 0.0 | 0.0 | 0.00 | 1.14 | 1.14 | 94 | 1015.9 |
| 20260903035503 | 24 | 211 | 0.0 | 0.0 | 0.00 | 1.14 | 1.14 | 94 | 1016.0 |
| 20260903035004 | 24 | 212 | 0.0 | 0.0 | 0.00 | 1.14 | 1.14 | 94 | 1015.9 |
| 20260903034503 | 24 | 211 | 0.0 | 0.0 | 0.00 | 1.14 | 1.14 | 94 | 1016.0 |
| 20260903033504 | 24 | 211 | 0.0 | 0.0 | 0.00 | 1.14 | 1.14 | 94 | 1015.9 |
| 20260903033004 | 24 | 212 | 0.0 | 0.0 | 0.00 | 1.14 | 1.14 | 94 | 1015.8 |
| 20260903032503 | 24 | 211 | 0.0 | 0.0 | 0.00 | 1.14 | 1.14 | 94 | 1015.8 |
| 20260903032004 | 24 | 211 | 0.0 | 0.0 | 0.00 | 1.14 | 1.14 | 94 | 1016.1 |
| 20260903031504 | 24 | 212 | 0.0 | 0.0 | 0.00 | 1.14 | 1.14 | 94 | 1016.1 |
| 20260903030503 | 25 | 211 | 0.0 | 0.0 | 0.00 | 1.14 | 1.14 | 93 | 1015.8 |
| 20260903025502 | 25 | 211 | 0.0 | 0.0 | 0.00 | 1.14 | 1.14 | 94 | 1015.6 |
| 20260903025005 | 25 | 211 | 0.0 | 0.0 | 0.00 | 1.14 | 1.14 | 94 | 1015.6 |
| 20260903024504 | 25 | 211 | 0.0 | 0.0 | 0.00 | 1.14 | 1.14 | 94 | 1015.5 |
| 20260903024003 | 25 | 211 | 0.0 | 0.0 | 0.00 | 1.14 | 1.14 | 94 | 1015.4 |
| 20260903023503 | 25 | 211 | 0.0 | 0.0 | 0.00 | 1.14 | 1.14 | 94 | 1015.2 |
| 20260903022504 | 25 | 212 | 0.0 | 0.0 | 0.00 | 1.14 | 1.14 | 94 | 1015.2 |
| 20260903022004 | 25 | 211 | 0.0 | 0.0 | 0.00 | 1.14 | 1.14 | 93 | 1015.1 |
| 20260903021506 | 25 | 211 | 0.0 | 0.0 | 0.00 | 1.14 | 1.14 | 93 | 1015.0 |
| 20260903021003 | 25 | 211 | 0.0 | 0.0 | 0.00 | 1.14 | 1.14 | 94 | 1015.0 |
| 20260903020502 | 25 | 211 | 0.0 | 0.0 | 0.00 | 1.14 | 1.14 | 94 | 1014.8 |
| 20260903020007 | 25 | 211 | 0.0 | 0.0 | 0.00 | 1.14 | 1.14 | 94 | 1014.8 |
| 20260903015003 | 25 | 211 | 0.0 | 0.0 | 0.00 | 1.14 | 1.14 | 93 | 1014.7 |
| 20260903014503 | 25 | 211 | 0.0 | 0.0 | 0.00 | 1.14 | 1.14 | 93 | 1014.6 |
| 20260903014004 | 25 | 211 | 0.0 | 0.0 | 0.00 | 1.14 | 1.14 | 93 | 1014.5 |
| 20260903013506 | 25 | 211 | 0.0 | 0.0 | 0.00 | 1.14 | 1.14 | 93 | 1014.8 |
| 20260903013006 | 25 | 211 | 0.0 | 0.0 | 0.00 | 1.14 | 1.14 | 93 | 1014.9 |
| 20260903012003 | 25 | 211 | 0.0 | 0.0 | 0.00 | 1.14 | 1.14 | 92 | 1015.0 |
| 20260903011505 | 25 | 211 | 0.0 | 0.0 | 0.00 | 1.14 | 1.14 | 92 | 1015.0 |
| 20260903011004 | 26 | 212 | 0.0 | 0.0 | 0.00 | 1.14 | 1.14 | 92 | 1014.9 |
| 20260903010006 | 26 | 212 | 0.0 | 0.0 | 0.00 | 1.14 | 1.14 | 92 | 1015.2 |
| 20260903005004 | 26 | 211 | 0.0 | 0.0 | 0.00 | 1.14 | 1.14 | 91 | 1015.2 |
| 20260903004503 | 26 | 211 | 0.0 | 0.0 | 0.00 | 1.14 | 1.14 | 91 | 1015.1 |
| 20260903004003 | 26 | 212 | 0.0 | 0.0 | 0.00 | 1.14 | 1.14 | 91 | 1015.0 |
| 20260903003004 | 26 | 211 | 0.0 | 0.0 | 0.00 | 1.14 | 1.14 | 90 | 1015.0 |
| 20260903002503 | 26 | 211 | 0.0 | 0.0 | 0.00 | 1.14 | 1.14 | 90 | 1014.9 |
| 20260903001503 | 26 | 211 | 0.0 | 0.0 | 0.00 | 1.14 | 1.14 | 90 | 1014.9 |
| 20260903001004 | 26 | 212 | 0.0 | 0.0 | 0.00 | 1.14 | 1.14 | 90 | 1015.0 |
| 20260903000503 | 26 | 211 | 0.0 | 0.0 | 0.00 | 1.14 | 1.14 | 90 | 1015.0 |
| 20260902235503 | 26 | 211 | 0.0 | 0.0 | 0.00 | 1.14 | 1.14 | 89 | 1014.9 |
| 20260902235004 | 27 | 212 | 0.0 | 0.0 | 0.00 | 1.14 | 1.14 | 90 | 1014.9 |
| 20260902234503 | 27 | 212 | 0.0 | 0.0 | 0.00 | 1.14 | 1.14 | 90 | 1014.9 |
| 20260902234004 | 27 | 211 | 0.0 | 0.0 | 0.00 | 1.14 | 1.14 | 89 | 1015.1 |
| 20260902233503 | 27 | 211 | 0.0 | 0.0 | 0.00 | 1.14 | 1.14 | 90 | 1015.1 |
| 20260902231504 | 27 | 168 | 0.0 | 0.0 | 0.00 | 1.14 | 1.14 | 89 | 1014.8 |
| 20260902231004 | 27 | 167 | 0.0 | 0.0 | 0.00 | 1.14 | 1.14 | 88 | 1014.5 |
| 20260902230502 | 27 | 257 | 0.0 | 0.0 | 0.00 | 1.14 | 1.14 | 90 | 1014.7 |
| 20260902230007 | 27 | 257 | 0.0 | 0.0 | 0.00 | 1.14 | 1.14 | 89 | 1014.6 |
| 20260902225503 | 27 | 257 | 0.0 | 1.6 | 0.00 | 1.14 | 1.14 | 89 | 1014.6 |
| 20260902225004 | 27 | 257 | 0.0 | 3.2 | 0.00 | 1.14 | 1.14 | 89 | 1014.7 |
| 20260902224504 | 27 | 257 | 0.0 | 3.2 | 0.00 | 1.14 | 1.14 | 88 | 1014.6 |
| 20260902224008 | 27 | 211 | 0.0 | 0.0 | 0.00 | 1.14 | 1.14 | 88 | 1014.7 |
| 20260902223004 | 27 | 217 | 0.0 | 3.2 | 0.00 | 1.14 | 1.14 | 88 | 1014.8 |
| 20260902221504 | 27 | 175 | 0.0 | 8.0 | 0.00 | 1.14 | 1.14 | 89 | 1014.9 |
| 20260902221004 | 27 | 247 | 0.0 | 1.6 | 0.00 | 1.14 | 1.14 | 90 | 1014.9 |
| 20260902220006 | 27 | 247 | 0.0 | 1.6 | 0.00 | 1.14 | 1.14 | 90 | 1015.0 |
| 20260902215503 | 27 | 248 | 0.0 | 4.8 | 0.00 | 1.14 | 1.14 | 89 | 1015.1 |
| 20260902215004 | 27 | 222 | 0.0 | 0.0 | 0.00 | 1.14 | 1.14 | 89 | 1015.1 |
| 20260902214004 | 27 | 240 | 0.0 | 0.0 | 0.00 | 1.14 | 1.14 | 90 | 1015.1 |
| 20260902213503 | 27 | 182 | 0.0 | 0.0 | 0.00 | 1.14 | 1.14 | 90 | 1015.0 |
| 20260902213004 | 27 | 182 | 0.0 | 0.0 | 0.00 | 1.14 | 1.14 | 91 | 1015.2 |
| 20260902212503 | 27 | 169 | 0.0 | 0.0 | 0.00 | 1.14 | 1.14 | 91 | 1015.2 |
| 20260902212004 | 26 | 177 | 0.0 | 0.0 | 0.00 | 1.14 | 1.14 | 92 | 1015.3 |
| 20260902211503 | 26 | 177 | 0.0 | 0.0 | 0.00 | 1.14 | 1.14 | 92 | 1015.2 |
| 20260902211003 | 26 | 177 | 0.0 | 0.0 | 0.00 | 1.14 | 1.14 | 91 | 1015.5 |
| 20260902210502 | 26 | 177 | 0.0 | 0.0 | 0.00 | 1.14 | 1.14 | 93 | 1015.5 |
| 20260902210007 | 26 | 178 | 0.0 | 0.0 | 0.00 | 1.14 | 1.14 | 92 | 1015.5 |
| 20260902205004 | 26 | 177 | 0.0 | 0.0 | 0.00 | 1.14 | 1.14 | 92 | 1015.7 |
| 20260902204505 | 26 | 178 | 0.0 | 0.0 | 0.00 | 1.14 | 1.14 | 92 | 1015.7 |
| 20260902204004 | 26 | 178 | 0.0 | 0.0 | 0.00 | 1.14 | 1.14 | 93 | 1015.9 |
| 20260902203503 | 26 | 178 | 0.0 | 0.0 | 0.00 | 1.14 | 1.14 | 92 | 1016.1 |
| 20260902203005 | 26 | 177 | 0.0 | 0.0 | 0.00 | 1.14 | 1.14 | 93 | 1016.1 |
| 20260902202503 | 26 | 178 | 0.0 | 0.0 | 0.00 | 1.14 | 1.14 | 93 | 1016.2 |
| 20260902202004 | 26 | 177 | 0.0 | 0.0 | 0.00 | 1.14 | 1.14 | 93 | 1016.3 |
| 20260902201503 | 26 | 176 | 0.0 | 0.0 | 0.00 | 1.14 | 1.14 | 93 | 1016.3 |
| 20260902201004 | 26 | 177 | 0.0 | 0.0 | 0.00 | 1.14 | 1.14 | 93 | 1016.4 |
| 20260902200503 | 26 | 76 | 0.0 | 0.0 | 0.00 | 1.14 | 1.14 | 93 | 1016.5 |
| 20260902200006 | 26 | 66 | 0.0 | 0.0 | 0.00 | 1.14 | 1.14 | 93 | 1016.5 |
| 20260902195503 | 25 | 66 | 0.0 | 0.0 | 0.00 | 1.14 | 1.14 | 93 | 1016.5 |
| 20260902195004 | 25 | 66 | 0.0 | 1.6 | 0.00 | 1.14 | 1.14 | 93 | 1016.5 |
| 20260902194503 | 25 | 66 | 1.6 | 4.8 | 0.00 | 1.14 | 1.14 | 93 | 1016.5 |
| 20260902194004 | 25 | 66 | 0.0 | 4.8 | 0.00 | 1.14 | 1.14 | 93 | 1016.4 |
| 20260902193503 | 25 | 45 | 0.0 | 1.6 | 0.03 | 1.14 | 1.14 | 93 | 1016.3 |
| 20260902193006 | 25 | 46 | 0.0 | 0.0 | 0.03 | 1.14 | 1.14 | 93 | 1016.3 |
| 20260902192005 | 25 | 46 | 0.0 | 0.0 | 0.05 | 1.14 | 1.14 | 93 | 1016.3 |
| 20260902191504 | 25 | 44 | 0.0 | 1.6 | 0.15 | 1.14 | 1.14 | 93 | 1016.3 |
| 20260902191003 | 25 | 44 | 0.0 | 1.6 | 0.15 | 1.14 | 1.14 | 93 | 1016.1 |
| 20260902190503 | 25 | 44 | 0.0 | 3.2 | 0.15 | 1.14 | 1.14 | 93 | 1016.2 |
| 20260902190008 | 25 | 45 | 0.0 | 3.2 | 0.15 | 1.14 | 1.14 | 93 | 1016.3 |
| 20260902185503 | 25 | 45 | 0.0 | 0.0 | 0.15 | 1.14 | 1.14 | 92 | 1016.3 |
| 20260902185004 | 25 | 45 | 0.0 | 0.0 | 0.20 | 1.14 | 1.14 | 92 | 1016.2 |
| 20260902183503 | 24 | 45 | 0.0 | 3.2 | 1.12 | 1.12 | 1.12 | 91 | 1016.6 |
| 20260902183005 | 24 | 46 | 1.6 | 3.2 | 1.12 | 1.12 | 1.12 | 90 | 1016.7 |
| 20260902182504 | 25 | 45 | 1.6 | 3.2 | 1.12 | 1.12 | 1.12 | 90 | 1016.5 |
| 20260902182004 | 25 | 46 | 0.0 | 3.2 | 1.09 | 1.09 | 1.09 | 89 | 1016.7 |
| 20260902180503 | 25 | 125 | 1.6 | 3.2 | 0.99 | 0.99 | 0.99 | 87 | 1016.8 |
| 20260902180008 | 26 | 194 | 1.6 | 3.2 | 0.99 | 0.99 | 0.99 | 85 | 1016.7 |
| 20260902175503 | 26 | 197 | 3.2 | 6.4 | 0.99 | 0.99 | 0.99 | 84 | 1016.7 |
| 20260902175007 | 26 | 10 | 3.2 | 16.1 | 0.91 | 0.91 | 0.91 | 81 | 1017.0 |
| 20260902174532 | 27 | 304 | 3.2 | 19.3 | 0.51 | 0.51 | 0.51 | 78 | 1017.2 |
| 20260902174004 | 28 | 184 | 1.6 | 19.3 | 0.18 | 0.18 | 0.18 | 76 | 1017.5 |
| 20260902172503 | 30 | 55 | 1.6 | 4.8 | 0.00 | 0.00 | 0.00 | 70 | 1016.9 |
| 20260902172004 | 31 | 19 | 1.6 | 6.4 | 0.00 | 0.00 | 0.00 | 69 | 1016.8 |
| 20260902171005 | 31 | 51 | 1.6 | 9.7 | 0.00 | 0.00 | 0.00 | 72 | 1016.7 |
| 20260902170504 | 31 | 88 | 1.6 | 4.8 | 0.00 | 0.00 | 0.00 | 73 | 1016.8 |
| 20260902170005 | 31 | 103 | 1.6 | 3.2 | 0.00 | 0.00 | 0.00 | 74 | 1016.8 |
| 20260902165502 | 31 | 168 | 1.6 | 8.0 | 0.00 | 0.00 | 0.00 | 76 | 1016.8 |
| 20260902165003 | 31 | 67 | 1.6 | 8.0 | 0.00 | 0.00 | 0.00 | 77 | 1017.2 |
| 20260902164003 | 30 | 36 | 1.6 | 3.2 | 0.00 | 0.00 | 0.00 | 76 | 1017.4 |
| 20260902163502 | 30 | 342 | 1.6 | 9.7 | 0.00 | 0.00 | 0.00 | 76 | 1017.4 |
| 20260902163004 | 31 | 99 | 1.6 | 9.7 | 0.00 | 0.00 | 0.00 | 76 | 1017.4 |
| 20260902162503 | 31 | 112 | 1.6 | 4.8 | 0.00 | 0.00 | 0.00 | 77 | 1017.3 |
| 20260902162004 | 31 | 81 | 1.6 | 9.7 | 0.00 | 0.00 | 0.00 | 76 | 1017.3 |
| 20260902161502 | 31 | 128 | 1.6 | 4.8 | 0.00 | 0.00 | 0.00 | 76 | 1017.3 |
| 20260902161003 | 31 | 26 | 1.6 | 4.8 | 0.00 | 0.00 | 0.00 | 77 | 1017.3 |
| 20260902160005 | 31 | 145 | 3.2 | 6.4 | 0.00 | 0.00 | 0.00 | 78 | 1017.4 |
| 20260902155003 | 30 | 109 | 1.6 | 9.7 | 0.00 | 0.00 | 0.00 | 80 | 1017.4 |
| 20260902154503 | 30 | 74 | 0.0 | 4.8 | 0.00 | 0.00 | 0.00 | 80 | 1017.5 |
| 20260902153003 | 30 | 134 | 0.0 | 3.2 | 0.00 | 0.00 | 0.00 | 80 | 1017.4 |
| 20260902152503 | 30 | 17 | 1.6 | 3.2 | 0.00 | 0.00 | 0.00 | 80 | 1017.5 |
| 20260902152002 | 30 | 114 | 1.6 | 4.8 | 0.00 | 0.00 | 0.00 | 81 | 1017.4 |
| 20260902151503 | 30 | 169 | 1.6 | 4.8 | 0.00 | 0.00 | 0.00 | 81 | 1017.3 |
| 20260902151003 | 30 | 115 | 1.6 | 4.8 | 0.00 | 0.00 | 0.00 | 81 | 1017.3 |
| 20260902150503 | 29 | 70 | 1.6 | 6.4 | 0.00 | 0.00 | 0.00 | 82 | 1017.2 |
| 20260902145504 | 29 | 49 | 3.2 | 9.7 | 0.00 | 0.00 | 0.00 | 82 | 1017.2 |
| 20260902145003 | 29 | 61 | 1.6 | 6.4 | 0.00 | 0.00 | 0.00 | 83 | 1017.3 |
| 20260902144503 | 29 | 277 | 1.6 | 11.3 | 0.00 | 0.00 | 0.00 | 83 | 1017.3 |
| 20260902144004 | 28 | 146 | 1.6 | 11.3 | 0.00 | 0.00 | 0.00 | 84 | 1017.3 |
| 20260902143504 | 28 | 237 | 1.6 | 9.7 | 0.00 | 0.00 | 0.00 | 85 | 1017.2 |
| 20260902142503 | 27 | 88 | 1.6 | 6.4 | 0.00 | 0.00 | 0.00 | 86 | 1017.2 |
| 20260902141004 | 27 | 98 | 1.6 | 6.4 | 0.00 | 0.00 | 0.00 | 89 | 1017.0 |
| 20260902140503 | 27 | 98 | 1.6 | 8.0 | 0.00 | 0.00 | 0.00 | 89 | 1017.0 |